Year,Month,Day,Hour,Minute,Value (Times are PST for temperature in C)
2010,02,05,00,06,9.40
2010,02,05,00,07,9.40
2010,02,05,00,08,9.40
2010,02,05,00,09,9.50
2010,02,05,00,10,9.50
2010,02,05,00,11,9.60
2010,02,05,00,12,9.60
2010,02,05,00,13,9.70
2010,02,05,00,14,9.70
2010,02,05,00,15,9.70
2010,02,05,00,16,9.70
2010,02,05,00,17,9.80
2010,02,05,00,18,9.80
2010,02,05,00,19,9.80
2010,02,05,00,20,9.80
2010,02,05,00,21,9.80
2010,02,05,00,22,9.80
2010,02,05,00,23,9.80
2010,02,05,00,24,9.80
2010,02,05,00,25,9.70
2010,02,05,00,26,9.70
2010,02,05,00,27,9.70
2010,02,05,00,28,9.60
2010,02,05,00,29,9.60
2010,02,05,00,30,9.50
2010,02,05,00,31,9.50
2010,02,05,00,32,9.40
2010,02,05,00,33,9.40
2010,02,05,00,34,9.40
2010,02,05,00,35,9.30
2010,02,05,00,36,9.30
2010,02,05,00,37,9.20
2010,02,05,00,38,9.20
2010,02,05,00,39,9.20
2010,02,05,00,40,9.20
2010,02,05,00,41,9.10
2010,02,05,00,42,9.10
2010,02,05,00,43,9.10
2010,02,05,00,44,9.10
2010,02,05,00,45,9.10
2010,02,05,00,46,9.10
2010,02,05,00,47,9.10
2010,02,05,00,48,9.10
2010,02,05,00,49,9.10
2010,02,05,00,50,9.10
2010,02,05,00,51,9.20
2010,02,05,00,52,9.20
2010,02,05,00,53,9.20
2010,02,05,00,54,9.20
2010,02,05,00,55,9.20
2010,02,05,00,56,9.30
2010,02,05,00,57,9.30
2010,02,05,00,58,9.30
2010,02,05,00,59,9.30
2010,02,05,01,00,9.30
2010,02,05,01,01,9.30
2010,02,05,01,02,9.30
2010,02,05,01,03,9.30
2010,02,05,01,04,9.30
2010,02,05,01,05,9.20
2010,02,05,01,06,9.20
2010,02,05,01,07,9.20
2010,02,05,01,08,9.10
2010,02,05,01,09,9.10
2010,02,05,01,10,9.10
2010,02,05,01,11,9.00
2010,02,05,01,12,9.00
2010,02,05,01,13,8.90
2010,02,05,01,14,8.90
2010,02,05,01,15,8.90
2010,02,05,01,16,8.90
2010,02,05,01,17,8.80
2010,02,05,01,18,8.80
2010,02,05,01,19,8.80
2010,02,05,01,20,8.80
2010,02,05,01,21,8.80
2010,02,05,01,22,8.80
2010,02,05,01,23,8.80
2010,02,05,01,24,8.80
2010,02,05,01,25,8.80
2010,02,05,01,26,8.80
2010,02,05,01,27,8.80
2010,02,05,01,28,8.80
2010,02,05,01,29,8.80
2010,02,05,01,30,8.80
2010,02,05,01,31,8.80
2010,02,05,01,32,8.80
2010,02,05,01,33,8.80
2010,02,05,01,34,8.80
2010,02,05,01,35,8.80
2010,02,05,01,36,8.80
2010,02,05,01,37,8.80
2010,02,05,01,38,8.80
2010,02,05,01,39,8.80
2010,02,05,01,40,8.80
2010,02,05,01,41,8.80
2010,02,05,01,42,8.80
2010,02,05,01,43,8.80
2010,02,05,01,44,8.80
2010,02,05,01,45,8.80
2010,02,05,01,46,8.70
2010,02,05,01,47,8.70
2010,02,05,01,48,8.70
2010,02,05,01,49,8.70
2010,02,05,01,50,8.70
2010,02,05,01,51,8.70
2010,02,05,01,52,8.70
2010,02,05,01,53,8.70
2010,02,05,01,54,8.70
2010,02,05,01,55,8.70
2010,02,05,01,56,8.70
2010,02,05,01,57,8.70
2010,02,05,01,58,8.70
2010,02,05,01,59,8.70
2010,02,05,02,00,8.70
2010,02,05,02,01,8.70
2010,02,05,02,02,8.60
2010,02,05,02,03,8.60
2010,02,05,02,04,8.60
2010,02,05,02,05,8.60
2010,02,05,02,06,8.60
2010,02,05,02,07,8.50
2010,02,05,02,08,8.50
2010,02,05,02,09,8.50
2010,02,05,02,10,8.50
2010,02,05,02,11,8.40
2010,02,05,02,12,8.40
2010,02,05,02,13,8.40
2010,02,05,02,14,8.40
2010,02,05,02,15,8.30
2010,02,05,02,16,8.30
2010,02,05,02,17,8.30
2010,02,05,02,18,8.30
2010,02,05,02,19,8.30
2010,02,05,02,20,8.30
2010,02,05,02,21,8.20
2010,02,05,02,22,8.20
2010,02,05,02,23,8.20
2010,02,05,02,24,8.20
2010,02,05,02,25,8.20
2010,02,05,02,26,8.20
2010,02,05,02,27,8.20
2010,02,05,02,28,8.10
2010,02,05,02,29,8.10
2010,02,05,02,30,8.10
2010,02,05,02,31,8.10
2010,02,05,02,32,8.10
2010,02,05,02,33,8.00
2010,02,05,02,34,8.00
2010,02,05,02,35,8.00
2010,02,05,02,36,7.90
2010,02,05,02,37,7.90
2010,02,05,02,38,7.90
2010,02,05,02,39,7.90
2010,02,05,02,40,7.90
2010,02,05,02,41,7.90
2010,02,05,02,42,7.90
2010,02,05,02,43,7.80
2010,02,05,02,44,7.80
2010,02,05,02,45,7.80
2010,02,05,02,46,7.80
2010,02,05,02,47,7.80
2010,02,05,02,48,7.80
2010,02,05,02,49,7.80
2010,02,05,02,50,7.80
2010,02,05,02,51,7.70
2010,02,05,02,52,7.70
2010,02,05,02,53,7.70
2010,02,05,02,54,7.70
2010,02,05,02,55,7.70
2010,02,05,02,56,7.70
2010,02,05,02,57,7.70
2010,02,05,02,58,7.70
2010,02,05,02,59,7.70
2010,02,05,03,00,7.70
2010,02,05,03,01,7.70
2010,02,05,03,02,7.70
2010,02,05,03,03,7.70
2010,02,05,03,04,7.70
2010,02,05,03,05,7.70
2010,02,05,03,06,7.70
2010,02,05,03,07,7.70
2010,02,05,03,08,7.70
2010,02,05,03,09,7.70
2010,02,05,03,10,7.70
2010,02,05,03,11,7.70
2010,02,05,03,12,7.70
2010,02,05,03,13,7.70
2010,02,05,03,14,7.70
2010,02,05,03,15,7.70
2010,02,05,03,16,7.80
2010,02,05,03,17,7.80
2010,02,05,03,18,7.80
2010,02,05,03,19,7.80
2010,02,05,03,20,7.80
2010,02,05,03,21,7.80
2010,02,05,03,22,7.80
2010,02,05,03,23,7.80
2010,02,05,03,24,7.80
2010,02,05,03,25,7.80
2010,02,05,03,26,7.80
2010,02,05,03,27,7.90
2010,02,05,03,28,7.90
2010,02,05,03,29,7.90
2010,02,05,03,30,7.90
2010,02,05,03,31,7.90
2010,02,05,03,32,7.90
2010,02,05,03,33,7.90
2010,02,05,03,34,7.90
2010,02,05,03,35,7.90
2010,02,05,03,36,7.90
2010,02,05,03,37,7.90
2010,02,05,03,38,7.90
2010,02,05,03,39,7.90
2010,02,05,03,40,7.90
2010,02,05,03,41,7.90
2010,02,05,03,42,7.90
2010,02,05,03,43,7.90
2010,02,05,03,44,8.00
2010,02,05,03,45,8.00
2010,02,05,03,46,8.00
2010,02,05,03,47,8.00
2010,02,05,03,48,8.00
2010,02,05,03,49,7.90
2010,02,05,03,50,8.00
2010,02,05,03,51,7.90
2010,02,05,03,52,7.90
2010,02,05,03,53,7.90
2010,02,05,03,54,7.90
2010,02,05,03,55,7.90
2010,02,05,03,56,7.90
2010,02,05,03,57,7.90
2010,02,05,03,58,7.90
2010,02,05,03,59,7.90
2010,02,05,04,00,7.90
2010,02,05,04,01,7.90
2010,02,05,04,02,7.90
2010,02,05,04,03,7.80
2010,02,05,04,04,7.80
2010,02,05,04,05,7.80
2010,02,05,04,06,7.80
2010,02,05,04,07,7.80
2010,02,05,04,08,7.80
2010,02,05,04,09,7.80
2010,02,05,04,10,7.80
2010,02,05,04,11,7.80
2010,02,05,04,12,7.80
2010,02,05,04,13,7.80
2010,02,05,04,14,7.80
2010,02,05,04,15,7.80
2010,02,05,04,16,7.80
2010,02,05,04,17,7.80
2010,02,05,04,18,7.80
2010,02,05,04,19,7.80
2010,02,05,04,20,7.80
2010,02,05,04,21,7.80
2010,02,05,04,22,7.80
2010,02,05,04,23,7.80
2010,02,05,04,24,7.80
2010,02,05,04,25,7.70
2010,02,05,04,26,7.70
2010,02,05,04,27,7.70
2010,02,05,04,28,7.70
2010,02,05,04,29,7.70
2010,02,05,04,30,7.70
2010,02,05,04,31,7.70
2010,02,05,04,32,7.70
2010,02,05,04,33,7.70
2010,02,05,04,34,7.70
2010,02,05,04,35,7.70
2010,02,05,04,36,7.70
2010,02,05,04,37,7.70
2010,02,05,04,38,7.70
2010,02,05,04,39,7.70
2010,02,05,04,40,7.70
2010,02,05,04,41,7.70
2010,02,05,04,42,7.70
2010,02,05,04,43,7.70
2010,02,05,04,44,7.70
2010,02,05,04,45,7.70
2010,02,05,04,46,7.70
2010,02,05,04,47,7.70
2010,02,05,04,48,7.70
2010,02,05,04,49,7.70
2010,02,05,04,50,7.70
2010,02,05,04,51,7.70
2010,02,05,04,52,7.70
2010,02,05,04,53,7.70
2010,02,05,04,54,7.70
2010,02,05,04,55,7.70
2010,02,05,04,56,7.70
2010,02,05,04,57,7.70
2010,02,05,04,58,7.70
2010,02,05,04,59,7.70
2010,02,05,05,00,7.70
2010,02,05,05,01,7.80
2010,02,05,05,02,7.80
2010,02,05,05,03,7.80
2010,02,05,05,04,7.80
2010,02,05,05,05,7.80
2010,02,05,05,06,7.80
2010,02,05,05,07,7.80
2010,02,05,05,08,7.80
2010,02,05,05,09,7.80
2010,02,05,05,10,7.80
2010,02,05,05,11,7.80
2010,02,05,05,12,7.80
2010,02,05,05,13,7.80
2010,02,05,05,14,7.80
2010,02,05,05,15,7.80
2010,02,05,05,16,7.80
2010,02,05,05,17,7.80
2010,02,05,05,18,7.80
2010,02,05,05,19,7.80
2010,02,05,05,20,7.80
2010,02,05,05,21,7.80
2010,02,05,05,22,7.80
2010,02,05,05,23,7.80
2010,02,05,05,24,7.80
2010,02,05,05,25,7.80
2010,02,05,05,26,7.80
2010,02,05,05,27,7.80
2010,02,05,05,28,7.80
2010,02,05,05,29,7.80
2010,02,05,05,30,7.80
2010,02,05,05,31,7.80
2010,02,05,05,32,7.80
2010,02,05,05,33,7.80
2010,02,05,05,34,7.80
2010,02,05,05,35,7.80
2010,02,05,05,36,7.80
2010,02,05,05,37,7.80
2010,02,05,05,38,7.80
2010,02,05,05,39,7.80
2010,02,05,05,40,7.80
2010,02,05,05,41,7.80
2010,02,05,05,42,7.80
2010,02,05,05,43,7.80
2010,02,05,05,44,7.80
2010,02,05,05,45,7.80
2010,02,05,05,46,7.80
2010,02,05,05,47,7.80
2010,02,05,05,48,7.80
2010,02,05,05,49,7.80
2010,02,05,05,50,7.80
2010,02,05,05,51,7.80
2010,02,05,05,52,7.80
2010,02,05,05,53,7.80
2010,02,05,05,54,7.80
2010,02,05,05,55,7.80
2010,02,05,05,56,7.80
2010,02,05,05,57,7.80
2010,02,05,05,58,7.80
2010,02,05,05,59,7.80
2010,02,05,06,00,7.80
2010,02,05,06,01,7.70
2010,02,05,06,02,7.80
2010,02,05,06,03,7.70
2010,02,05,06,04,7.70
2010,02,05,06,05,7.70
2010,02,05,06,06,7.80
2010,02,05,06,07,7.80
2010,02,05,06,08,7.80
2010,02,05,06,09,7.80
2010,02,05,06,10,7.80
2010,02,05,06,11,7.80
2010,02,05,06,12,7.80
2010,02,05,06,13,7.80
2010,02,05,06,14,7.80
2010,02,05,06,15,7.80
2010,02,05,06,16,7.80
2010,02,05,06,17,7.80
2010,02,05,06,18,7.80
2010,02,05,06,19,7.80
2010,02,05,06,20,7.80
2010,02,05,06,21,7.80
2010,02,05,06,22,7.80
2010,02,05,06,23,7.80
2010,02,05,06,24,7.80
2010,02,05,06,25,7.80
2010,02,05,06,26,7.80
2010,02,05,06,27,7.80
2010,02,05,06,28,7.80
2010,02,05,06,29,7.80
2010,02,05,06,30,7.80
2010,02,05,06,31,7.80
2010,02,05,06,32,7.80
2010,02,05,06,33,7.80
2010,02,05,06,34,7.80
2010,02,05,06,35,7.80
2010,02,05,06,36,7.80
2010,02,05,06,37,7.70
2010,02,05,06,38,7.70
2010,02,05,06,39,7.70
2010,02,05,06,40,7.70
2010,02,05,06,41,7.70
2010,02,05,06,42,7.70
2010,02,05,06,43,7.70
2010,02,05,06,44,7.70
2010,02,05,06,45,7.70
2010,02,05,06,46,7.70
2010,02,05,06,47,7.70
2010,02,05,06,48,7.70
2010,02,05,06,49,7.70
2010,02,05,06,50,7.70
2010,02,05,06,51,7.70
2010,02,05,06,52,7.70
2010,02,05,06,53,7.70
2010,02,05,06,54,7.70
2010,02,05,06,55,7.70
2010,02,05,06,56,7.70
2010,02,05,06,57,7.70
2010,02,05,06,58,7.70
2010,02,05,06,59,7.70
2010,02,05,07,00,7.70
2010,02,05,07,01,7.70
2010,02,05,07,02,7.70
2010,02,05,07,03,7.70
2010,02,05,07,04,7.70
2010,02,05,07,05,7.70
2010,02,05,08,06,7.80
2010,02,05,08,07,7.80
2010,02,05,08,08,7.80
2010,02,05,08,09,7.80
2010,02,05,08,10,7.80
2010,02,05,08,11,7.80
2010,02,05,08,12,7.80
2010,02,05,08,13,7.80
2010,02,05,08,14,7.80
2010,02,05,08,15,7.80
2010,02,05,08,16,7.80
2010,02,05,08,17,7.80
2010,02,05,08,18,7.80
2010,02,05,08,19,7.80
2010,02,05,08,20,7.80
2010,02,05,08,21,7.80
2010,02,05,08,22,7.80
2010,02,05,08,23,7.80
2010,02,05,08,24,7.80
2010,02,05,08,25,7.80
2010,02,05,08,26,7.80
2010,02,05,08,27,7.80
2010,02,05,08,28,7.80
2010,02,05,08,29,7.80
2010,02,05,08,30,7.80
2010,02,05,08,31,7.80
2010,02,05,08,32,7.80
2010,02,05,08,33,7.80
2010,02,05,08,34,7.90
2010,02,05,08,35,7.90
2010,02,05,08,36,7.90
2010,02,05,08,37,7.90
2010,02,05,08,38,7.90
2010,02,05,08,39,7.90
2010,02,05,08,40,7.90
2010,02,05,08,41,7.90
2010,02,05,08,42,7.90
2010,02,05,08,43,7.90
2010,02,05,08,44,7.90
2010,02,05,08,45,7.90
2010,02,05,08,46,7.90
2010,02,05,08,47,8.00
2010,02,05,08,48,8.00
2010,02,05,08,49,8.00
2010,02,05,08,50,8.00
2010,02,05,08,51,8.00
2010,02,05,08,52,8.00
2010,02,05,08,53,8.00
2010,02,05,08,54,8.00
2010,02,05,08,55,8.10
2010,02,05,08,56,8.10
2010,02,05,08,57,8.10
2010,02,05,08,58,8.10
2010,02,05,08,59,8.10
2010,02,05,09,00,8.10
2010,02,05,09,01,8.10
2010,02,05,09,02,8.10
2010,02,05,09,03,8.10
2010,02,05,09,04,8.10
2010,02,05,09,05,8.10
2010,02,05,09,06,8.10
2010,02,05,09,07,8.10
2010,02,05,09,08,8.10
2010,02,05,09,09,8.10
2010,02,05,09,10,8.10
2010,02,05,09,11,8.10
2010,02,05,09,12,8.10
2010,02,05,09,13,8.10
2010,02,05,10,06,8.50
2010,02,05,10,07,8.60
2010,02,05,10,08,8.60
2010,02,05,10,09,8.60
2010,02,05,10,10,8.60
2010,02,05,10,11,8.60
2010,02,05,10,12,8.60
2010,02,05,10,13,8.70
2010,02,05,10,14,8.70
2010,02,05,10,15,8.70
2010,02,05,10,16,8.70
2010,02,05,10,17,8.70
2010,02,05,10,18,8.70
2010,02,05,10,19,8.70
2010,02,05,10,20,8.70
2010,02,05,10,21,8.70
2010,02,05,10,22,8.70
2010,02,05,10,23,8.70
2010,02,05,10,24,8.70
2010,02,05,10,25,8.60
2010,02,05,10,26,8.60
2010,02,05,10,27,8.60
2010,02,05,10,28,8.60
2010,02,05,10,29,8.60
2010,02,05,10,30,8.60
2010,02,05,10,31,8.60
2010,02,05,10,32,8.60
2010,02,05,10,33,8.60
2010,02,05,10,34,8.60
2010,02,05,10,35,8.60
2010,02,05,10,36,8.60
2010,02,05,10,37,8.60
2010,02,05,10,38,8.60
2010,02,05,10,39,8.60
2010,02,05,10,40,8.60
2010,02,05,10,41,8.60
2010,02,05,10,42,8.60
2010,02,05,10,43,8.60
2010,02,05,10,44,8.60
2010,02,05,10,45,8.60
2010,02,05,10,46,8.70
2010,02,05,10,47,8.70
2010,02,05,10,48,8.70
2010,02,05,10,49,8.70
2010,02,05,10,50,8.70
2010,02,05,10,51,8.80
2010,02,05,10,52,8.80
2010,02,05,10,53,8.80
2010,02,05,10,54,8.80
2010,02,05,10,55,8.90
2010,02,05,10,56,8.90
2010,02,05,10,57,9.00
2010,02,05,10,58,9.00
2010,02,05,10,59,9.10
2010,02,05,11,00,9.10
2010,02,05,11,01,9.20
2010,02,05,11,02,9.20
2010,02,05,11,03,9.20
2010,02,05,11,04,9.20
2010,02,05,11,05,9.20
2010,02,05,11,06,9.30
2010,02,05,11,07,9.20
2010,02,05,11,08,9.20
2010,02,05,11,09,9.20
2010,02,05,11,10,9.20
2010,02,05,11,11,9.30
2010,02,05,11,12,9.20
2010,02,05,11,13,9.20
2010,02,05,11,14,9.20
2010,02,05,11,15,9.20
2010,02,05,11,16,9.20
2010,02,05,11,17,9.20
2010,02,05,11,18,9.20
2010,02,05,11,19,9.20
2010,02,05,11,20,9.20
2010,02,05,11,21,9.20
2010,02,05,11,22,9.20
2010,02,05,11,23,9.20
2010,02,05,11,24,9.20
2010,02,05,11,25,9.20
2010,02,05,11,26,9.20
2010,02,05,11,27,9.10
2010,02,05,11,28,9.10
2010,02,05,11,29,9.10
2010,02,05,11,30,9.10
2010,02,05,11,31,9.10
2010,02,05,11,32,9.10
2010,02,05,11,33,9.00
2010,02,05,11,34,9.00
2010,02,05,11,35,9.00
2010,02,05,11,36,9.00
2010,02,05,11,37,9.00
2010,02,05,11,38,9.00
2010,02,05,11,39,9.00
2010,02,05,11,40,9.00
2010,02,05,11,41,9.00
2010,02,05,11,42,9.00
2010,02,05,11,43,9.00
2010,02,05,11,44,9.00
2010,02,05,11,45,9.00
2010,02,05,11,46,9.00
2010,02,05,11,47,9.00
2010,02,05,11,48,9.00
2010,02,05,11,49,9.00
2010,02,05,11,50,9.00
2010,02,05,11,51,8.90
2010,02,05,11,52,8.90
2010,02,05,11,53,8.90
2010,02,05,11,54,8.90
2010,02,05,11,55,8.90
2010,02,05,11,56,8.90
2010,02,05,11,57,8.90
2010,02,05,11,58,8.90
2010,02,05,11,59,8.80
2010,02,05,12,00,8.80
2010,02,05,12,01,8.80
2010,02,05,12,02,8.80
2010,02,05,12,03,8.80
2010,02,05,12,04,8.80
2010,02,05,12,05,8.80
2010,02,05,12,06,8.80
2010,02,05,12,07,8.70
2010,02,05,12,08,8.70
2010,02,05,12,09,8.70
2010,02,05,12,10,8.70
2010,02,05,12,11,8.70
2010,02,05,12,12,8.70
2010,02,05,12,13,8.70
2010,02,05,12,14,8.70
2010,02,05,12,15,8.70
2010,02,05,12,16,8.70
2010,02,05,12,17,8.70
2010,02,05,12,18,8.70
2010,02,05,12,19,8.70
2010,02,05,12,20,8.70
2010,02,05,12,21,8.70
2010,02,05,12,22,8.70
2010,02,05,12,23,8.70
2010,02,05,12,24,8.70
2010,02,05,12,25,8.70
2010,02,05,12,26,8.70
2010,02,05,12,27,8.70
2010,02,05,12,28,8.70
2010,02,05,12,29,8.70
2010,02,05,12,30,8.70
2010,02,05,12,31,8.70
2010,02,05,12,32,9.20
2010,02,05,13,06,8.70
2010,02,05,13,07,8.70
2010,02,05,13,08,8.70
2010,02,05,13,09,8.70
2010,02,05,13,10,8.70
2010,02,05,13,11,8.70
2010,02,05,13,12,8.70
2010,02,05,13,13,8.80
2010,02,05,13,14,8.80
2010,02,05,13,15,8.80
2010,02,05,13,16,8.80
2010,02,05,13,17,8.80
2010,02,05,13,18,8.80
2010,02,05,13,19,8.90
2010,02,05,13,20,8.90
2010,02,05,13,21,9.00
2010,02,05,13,22,9.00
2010,02,05,13,23,9.00
2010,02,05,13,24,9.10
2010,02,05,13,25,9.10
2010,02,05,13,26,9.20
2010,02,05,13,27,9.20
2010,02,05,13,28,9.20
2010,02,05,13,29,9.30
2010,02,05,13,30,9.30
2010,02,05,13,31,9.30
2010,02,05,13,32,9.30
2010,02,05,13,33,9.30
2010,02,05,13,34,9.40
2010,02,05,13,35,9.40
2010,02,05,13,36,9.40
2010,02,05,13,37,9.50
2010,02,05,13,38,9.50
2010,02,05,13,39,9.50
2010,02,05,13,40,9.60
2010,02,05,13,41,9.60
2010,02,05,13,42,9.60
2010,02,05,13,43,9.60
2010,02,05,13,44,9.60
2010,02,05,13,45,9.60
2010,02,05,13,46,9.60
2010,02,05,13,47,9.60
2010,02,05,13,48,9.60
2010,02,05,13,49,9.60
2010,02,05,13,50,9.60
2010,02,05,13,51,9.60
2010,02,05,13,52,9.60
2010,02,05,13,53,9.60
2010,02,05,13,54,9.60
2010,02,05,13,55,9.50
2010,02,05,13,56,9.50
2010,02,05,13,57,9.50
2010,02,05,13,58,9.50
2010,02,05,13,59,9.50
2010,02,05,14,00,9.60
2010,02,05,14,01,9.50
2010,02,05,14,02,9.60
2010,02,05,14,03,9.60
2010,02,05,14,04,9.60
2010,02,05,14,05,9.60
2010,02,05,14,06,9.60
2010,02,05,14,07,9.60
2010,02,05,14,08,9.60
2010,02,05,14,09,9.50
2010,02,05,14,10,9.50
2010,02,05,14,11,9.50
2010,02,05,14,12,9.40
2010,02,05,14,13,9.40
2010,02,05,14,14,9.40
2010,02,05,14,15,9.30
2010,02,05,14,16,9.30
2010,02,05,14,17,9.30
2010,02,05,14,18,9.30
2010,02,05,14,19,9.30
2010,02,05,14,20,9.30
2010,02,05,14,21,9.30
2010,02,05,14,22,9.30
2010,02,05,14,23,9.30
2010,02,05,14,24,9.30
2010,02,05,14,25,9.30
2010,02,05,14,26,9.30
2010,02,05,14,27,9.30
2010,02,05,14,28,9.30
2010,02,05,14,29,9.30
2010,02,05,14,30,9.30
2010,02,05,14,31,9.30
2010,02,05,14,32,9.30
2010,02,05,14,33,9.30
2010,02,05,14,34,9.30
2010,02,05,14,35,9.30
2010,02,05,14,36,9.30
2010,02,05,14,37,9.30
2010,02,05,14,38,9.30
2010,02,05,14,39,9.30
2010,02,05,14,40,9.20
2010,02,05,15,06,9.70
2010,02,05,15,07,9.70
2010,02,05,15,08,9.70
2010,02,05,15,09,9.70
2010,02,05,15,10,9.70
2010,02,05,15,11,9.70
2010,02,05,15,12,9.70
2010,02,05,15,13,9.70
2010,02,05,15,14,9.70
2010,02,05,15,15,9.70
2010,02,05,15,16,9.70
2010,02,05,15,17,9.70
2010,02,05,15,18,9.80
2010,02,05,15,19,9.80
2010,02,05,15,20,9.80
2010,02,05,15,21,9.80
2010,02,05,15,22,9.80
2010,02,05,15,23,9.80
2010,02,05,15,24,9.80
2010,02,05,15,25,9.80
2010,02,05,15,26,9.90
2010,02,05,15,27,9.90
2010,02,05,15,28,9.90
2010,02,05,15,29,9.90
2010,02,05,15,30,9.90
2010,02,05,15,31,9.90
2010,02,05,15,32,9.90
2010,02,05,15,33,9.90
2010,02,05,15,34,9.90
2010,02,05,15,35,10.00
2010,02,05,15,36,10.00
2010,02,05,15,37,9.90
2010,02,05,15,38,10.00
2010,02,05,15,39,10.00
2010,02,05,15,40,10.00
2010,02,05,15,41,10.00
2010,02,05,15,42,10.00
2010,02,05,15,43,10.00
2010,02,05,15,44,10.00
2010,02,05,15,45,10.00
2010,02,05,15,46,10.00
2010,02,05,15,47,10.00
2010,02,05,15,48,10.00
2010,02,05,15,49,10.00
2010,02,05,15,50,10.00
2010,02,05,15,51,10.00
2010,02,05,15,52,10.00
2010,02,05,15,53,10.00
2010,02,05,15,54,10.00
2010,02,05,15,55,10.00
2010,02,05,15,56,10.00
2010,02,05,15,57,10.00
2010,02,05,15,58,10.00
2010,02,05,15,59,10.00
2010,02,05,16,00,10.00
2010,02,05,16,01,9.90
2010,02,05,16,02,9.90
2010,02,05,16,03,9.90
2010,02,05,16,04,9.90
2010,02,05,16,05,9.90
2010,02,05,16,06,9.90
2010,02,05,16,07,9.90
2010,02,05,16,08,9.90
2010,02,05,16,09,9.90
2010,02,05,16,10,9.90
2010,02,05,16,11,9.90
2010,02,05,16,12,9.80
2010,02,05,16,13,9.80
2010,02,05,16,14,9.80
2010,02,05,16,15,9.80
2010,02,05,16,16,9.80
2010,02,05,16,17,9.80
2010,02,05,16,18,9.80
2010,02,05,16,19,9.80
2010,02,05,16,20,9.90
2010,02,05,16,21,9.90
2010,02,05,16,22,9.90
2010,02,05,16,23,9.90
2010,02,05,16,24,9.90
2010,02,05,16,25,9.90
2010,02,05,16,26,9.90
2010,02,05,16,27,9.90
2010,02,05,16,28,9.90
2010,02,05,16,29,9.90
2010,02,05,16,30,9.90
2010,02,05,16,31,9.90
2010,02,05,16,32,9.90
2010,02,05,16,33,9.90
2010,02,05,16,34,9.90
2010,02,05,16,35,9.90
2010,02,05,16,36,9.90
2010,02,05,16,37,9.90
2010,02,05,16,38,9.90
2010,02,05,16,39,9.90
2010,02,05,16,40,9.80
2010,02,05,16,41,9.80
2010,02,05,16,42,9.80
2010,02,05,16,43,9.80
2010,02,05,16,44,9.80
2010,02,05,16,45,9.80
2010,02,05,16,46,9.80
2010,02,05,16,47,9.80
2010,02,05,16,48,9.80
2010,02,05,16,49,9.80
2010,02,05,16,50,9.80
2010,02,05,16,51,9.80
2010,02,05,16,52,9.80
2010,02,05,16,53,9.80
2010,02,05,16,54,9.80
2010,02,05,16,55,9.80
2010,02,05,16,56,9.80
2010,02,05,16,57,9.80
2010,02,05,16,58,9.80
2010,02,05,16,59,9.80
2010,02,05,17,00,9.80
2010,02,05,17,01,9.80
2010,02,05,17,02,9.70
2010,02,05,17,03,9.70
2010,02,05,17,04,9.70
2010,02,05,17,05,9.70
2010,02,05,17,06,9.70
2010,02,05,17,07,9.70
2010,02,05,17,08,9.70
2010,02,05,17,09,9.60
2010,02,05,17,10,9.60
2010,02,05,17,11,9.60
2010,02,05,17,12,9.60
2010,02,05,17,13,9.60
2010,02,05,17,14,9.60
2010,02,05,17,15,9.60
2010,02,05,17,16,9.60
2010,02,05,17,17,9.50
2010,02,05,17,18,9.50
2010,02,05,17,19,9.50
2010,02,05,17,20,9.50
2010,02,05,17,21,9.40
2010,02,05,17,22,9.40
2010,02,05,17,23,9.40
2010,02,05,17,24,9.40
2010,02,05,17,25,9.40
2010,02,05,17,26,9.40
2010,02,05,17,27,9.40
2010,02,05,17,28,9.30
2010,02,05,17,29,9.30
2010,02,05,17,30,9.30
2010,02,05,17,31,9.30
2010,02,05,17,32,9.30
2010,02,05,17,33,9.30
2010,02,05,17,34,9.30
2010,02,05,17,35,9.30
2010,02,05,17,36,9.30
2010,02,05,17,37,9.30
2010,02,05,17,38,9.30
2010,02,05,17,39,9.30
2010,02,05,17,40,9.30
2010,02,05,17,41,9.30
2010,02,05,17,42,9.30
2010,02,05,17,43,9.30
2010,02,05,17,44,9.30
2010,02,05,17,45,9.20
2010,02,05,17,46,9.20
2010,02,05,17,47,9.20
2010,02,05,17,48,9.20
2010,02,05,17,49,9.20
2010,02,05,17,50,9.20
2010,02,05,17,51,9.20
2010,02,05,17,52,9.20
2010,02,05,17,53,9.20
2010,02,05,17,54,9.20
2010,02,05,17,55,9.20
2010,02,05,17,56,9.20
2010,02,05,17,57,9.20
2010,02,05,17,58,9.20
2010,02,05,17,59,9.20
2010,02,05,18,00,9.20
2010,02,05,18,01,9.20
2010,02,05,18,02,9.20
2010,02,05,18,03,9.20
2010,02,05,18,04,9.20
2010,02,05,18,05,9.30
2010,02,05,18,06,9.30
2010,02,05,18,07,9.30
2010,02,05,18,08,9.30
2010,02,05,18,09,9.30
2010,02,05,18,10,9.30
2010,02,05,18,11,9.40
2010,02,05,18,12,9.40
2010,02,05,18,13,9.40
2010,02,05,18,14,9.40
2010,02,05,18,15,9.40
2010,02,05,18,16,9.40
2010,02,05,18,17,9.40
2010,02,05,18,18,9.50
2010,02,05,18,19,9.50
2010,02,05,18,20,9.50
2010,02,05,18,21,9.60
2010,02,05,18,22,9.60
2010,02,05,18,23,9.60
2010,02,05,18,24,9.60
2010,02,05,18,25,9.60
2010,02,05,18,26,9.60
2010,02,05,18,27,9.60
2010,02,05,18,28,9.70
2010,02,05,18,29,9.70
2010,02,05,18,30,9.70
2010,02,05,18,31,9.70
2010,02,05,18,32,9.70
2010,02,05,18,33,9.70
2010,02,05,18,34,9.70
2010,02,05,18,35,9.70
2010,02,05,18,36,9.70
2010,02,05,18,37,9.70
2010,02,05,18,38,9.70
2010,02,05,18,39,9.70
2010,02,05,18,40,9.70
2010,02,05,18,41,9.70
2010,02,05,18,42,9.70
2010,02,05,18,43,9.70
2010,02,05,18,44,9.70
2010,02,05,18,45,9.70
2010,02,05,18,46,9.70
2010,02,05,18,47,9.70
2010,02,05,18,48,9.80
2010,02,05,18,49,9.80
2010,02,05,18,50,9.80
2010,02,05,18,51,9.80
2010,02,05,18,52,9.80
2010,02,05,18,53,9.80
2010,02,05,18,54,9.90
2010,02,05,18,55,9.90
2010,02,05,18,56,9.30
2010,02,05,19,06,9.80
2010,02,05,19,07,9.80
2010,02,05,19,08,9.80
2010,02,05,19,09,9.80
2010,02,05,19,10,9.80
2010,02,05,19,11,9.80
2010,02,05,19,12,9.80
2010,02,05,19,13,9.80
2010,02,05,19,14,9.80
2010,02,05,19,15,9.80
2010,02,05,19,16,9.80
2010,02,05,19,17,9.80
2010,02,05,19,18,9.80
2010,02,05,19,19,9.80
2010,02,05,19,20,9.80
2010,02,05,19,21,9.80
2010,02,05,19,22,9.80
2010,02,05,19,23,9.80
2010,02,05,19,24,9.80
2010,02,05,19,25,9.80
2010,02,05,19,26,9.80
2010,02,05,19,27,9.80
2010,02,05,19,28,9.80
2010,02,05,19,29,9.80
2010,02,05,19,30,9.80
2010,02,05,19,31,9.80
2010,02,05,19,32,9.80
2010,02,05,19,33,9.80
2010,02,05,19,34,9.70
2010,02,05,19,35,9.80
2010,02,05,19,36,9.80
2010,02,05,19,37,9.80
2010,02,05,19,38,9.80
2010,02,05,19,39,9.80
2010,02,05,19,40,9.80
2010,02,05,19,41,9.80
2010,02,05,19,42,9.80
2010,02,05,19,43,9.80
2010,02,05,19,44,9.80
2010,02,05,19,45,9.80
2010,02,05,19,46,9.80
2010,02,05,19,47,9.80
2010,02,05,19,48,9.80
2010,02,05,19,49,9.80
2010,02,05,19,50,9.80
2010,02,05,19,51,9.80
2010,02,05,19,52,9.80
2010,02,05,19,53,9.80
2010,02,05,19,54,9.90
2010,02,05,19,55,9.90
2010,02,05,19,56,9.90
2010,02,05,19,57,9.90
2010,02,05,19,58,9.90
2010,02,05,19,59,9.90
2010,02,05,20,00,9.90
2010,02,05,20,01,9.90
2010,02,05,20,02,9.90
2010,02,05,20,03,9.90
2010,02,05,20,04,9.90
2010,02,05,20,05,9.90
2010,02,05,20,06,9.90
2010,02,05,20,07,9.90
2010,02,05,20,08,9.90
2010,02,05,20,09,9.90
2010,02,05,20,10,9.90
2010,02,05,20,11,9.90
2010,02,05,20,12,9.90
2010,02,05,20,13,9.90
2010,02,05,20,14,9.90
2010,02,05,20,15,9.90
2010,02,05,20,16,9.90
2010,02,05,20,17,9.90
2010,02,05,20,18,9.90
2010,02,05,20,19,9.90
2010,02,05,20,20,9.90
2010,02,05,20,21,9.90
2010,02,05,20,22,9.90
2010,02,05,20,23,9.90
2010,02,05,20,24,9.90
2010,02,05,20,25,9.90
2010,02,05,20,26,9.90
2010,02,05,20,27,9.90
2010,02,05,20,28,9.90
2010,02,05,20,29,9.90
2010,02,05,20,30,9.90
2010,02,05,20,31,9.90
2010,02,05,20,32,9.90
2010,02,05,20,33,9.90
2010,02,05,20,34,9.90
2010,02,05,20,35,9.90
2010,02,05,20,36,9.90
2010,02,05,20,37,9.90
2010,02,05,20,38,9.90
2010,02,05,20,39,9.90
2010,02,05,20,40,9.90
2010,02,05,20,41,9.90
2010,02,05,20,42,9.90
2010,02,05,20,43,9.90
2010,02,05,20,44,9.90
2010,02,05,20,45,9.90
2010,02,05,20,46,9.90
2010,02,05,20,47,9.90
2010,02,05,20,48,9.90
2010,02,05,20,49,9.90
2010,02,05,20,50,9.90
2010,02,05,20,51,10.00
2010,02,05,20,52,10.00
2010,02,05,20,53,10.00
2010,02,05,20,54,10.00
2010,02,05,20,55,10.00
2010,02,05,20,56,10.00
2010,02,05,20,57,10.00
2010,02,05,20,58,10.00
2010,02,05,20,59,10.00
2010,02,05,21,00,10.00
2010,02,05,21,01,10.00
2010,02,05,21,02,10.00
2010,02,05,21,03,10.00
2010,02,05,21,04,10.00
2010,02,05,21,05,10.00
2010,02,05,21,06,9.90
2010,02,05,21,07,9.90
2010,02,05,21,08,9.90
2010,02,05,21,09,9.90